QPF
0.00 0.00 0.00 0.00 0.00 0.00 0.00 0.00 0.00 0.00 0.00 0.00 0.00 0.00 0.00 0.00 0.00 0.00 0.00 0.00 0.00 0.00 0.00 0.00 0.00 0.00 0.00 0.00 0.00 0.00 0.00 0.00 0.00 0.00 0.00 0.00 0.00 0.00 0.00 0.00 0.00 0.00 0.00 0.00
0.00 0.00 0.00 0.00 0.00 0.00 0.00 0.00 0.00 0.00 0.00 0.00 0.00 0.00 0.00 0.00 0.00 0.00 0.00 0.00 0.00 0.00 0.00 0.00 0.00 0.00 0.00 0.00 0.00 0.00 0.00 0.00 0.00 0.00 0.00 0.00 0.00 0.00 0.00 0.00 0.00 0.00 0.00 0.00
0.00 0.00 0.00 0.00 0.00 0.00 0.00 0.00 0.00 0.00 0.00 0.00 0.00 0.00 0.00 0.00 0.00 0.00 0.00 0.00 0.00 0.00 0.00 0.00 0.00 0.00 0.00 0.00 0.00 0.00 0.00 0.00 0.00 0.00 0.00 0.00 0.00 0.00 0.00 0.00 0.00 0.00 0.00 0.00
0.00 0.00 0.00 0.00 0.00 0.00 0.00 0.00 0.00 0.00 0.00 0.00 0.00 0.00 0.00 0.00 0.00 0.00 0.00 0.00 0.00 0.00 0.00 0.00 0.00 0.00 0.00 0.00 0.00 0.00 0.00 0.00 0.00 0.00 0.00 0.00 0.00 0.00 0.00 0.00 0.00 0.00 0.00 0.00
0.00 0.00 0.00 0.00 0.00 0.00 0.00 0.00 0.00 0.00 0.00 0.00 0.00 0.00 0.00 0.00 0.00 0.00 0.00 0.00 0.00 0.00 0.00 0.00 0.00 0.00 0.00 0.00 0.00 0.00 0.00 0.00 0.00 0.00 0.00 0.00 0.00 0.00 0.00 0.00 0.00 0.00 0.00 0.00
0.00 0.00 0.00 0.00 0.00 0.00 0.00 0.00 0.00 0.00 0.00 0.00 0.00 0.00 0.00 0.00 0.00 0.00 0.00 0.00 0.00 0.00 0.00 0.00 0.00 0.00 0.00 0.00 0.00 0.00 0.00 0.00 0.00 0.00 0.00 0.00 0.00 0.00 0.00 0.00 0.00 0.00 0.00 0.00
0.00 0.00 0.00 0.00 0.00 0.00 0.00 0.00 0.00 0.00 0.00 0.00 0.00 0.00 0.00 0.00 0.00 0.00 0.00 0.00 0.00 0.00 0.00 0.00 0.00 0.00 0.00 0.00 0.00 0.00 0.00 0.00 0.00 0.00 0.00 0.00 0.00 0.00 0.00 0.00 0.00 0.00 0.00 0.00
0.00 0.00 0.00 0.00 0.00 0.00 0.00 0.00 0.00 0.00 0.00 0.00 0.00 0.00 0.00 0.00 0.00 0.00 0.00 0.00 0.00 0.00 0.00 0.00 0.00 0.00 0.00 0.00 0.00 0.00 0.00 0.00 0.00 0.00 0.00 0.00 0.00 0.00 0.00 0.00 0.00 0.00 0.00 0.00
0.00 0.00 0.00 0.00 0.00 0.00 0.00 0.00 0.00 0.00 0.00 0.00 0.00 0.00 0.00 0.00 0.00 0.00 0.00 0.00 0.00 0.00 0.00 0.00 0.00 0.00 0.00 0.00 0.00 0.00 0.00 0.00 0.00 0.00 0.00 0.00 0.00 0.00 0.00 0.00 0.00 0.00 0.00 0.00
0.00 0.00 0.00 0.00 0.00 0.00 0.00 0.00 0.00 0.00 0.00 0.00 0.00 0.00 0.00 0.00 0.00 0.00 0.00 0.00 0.00 0.00 0.00 0.00 0.00 0.00 0.00 0.00 0.00 0.00 0.00 0.00 0.00 0.00 0.00 0.00 0.00 0.00 0.00 0.00 0.00 0.00 0.00 0.00
0.00 0.00 0.00 0.00 0.00 0.00 0.00 0.00 0.00 0.00 0.00 0.00 0.00 0.00 0.00 0.00 0.00 0.00 0.00 0.00 0.00 0.00 0.00 0.00 0.00 0.00 0.00 0.00 0.00 0.00 0.00 0.00 0.00 0.00 0.00 0.00 0.00 0.00 0.00 0.00 0.00 0.00 0.00 0.00
0.00 0.00 0.00 0.00 0.00 0.00 0.00 0.00 0.00 0.00 0.00 0.00 0.00 0.00 0.00 0.00 0.00 0.00 0.00 0.00 0.00 0.00 0.00 0.00 0.00 0.00 0.00 0.00 0.00 0.00 0.00 0.00 0.00 0.00 0.00 0.00 0.00 0.00 0.00 0.00 0.00 0.00 0.00 0.00
0.00 0.00 0.00 0.00 0.00 0.00 0.00 0.00 0.00 0.00 0.00 0.00 0.00 0.00 0.00 0.00 0.00 0.00 0.00 0.00 0.00 0.00 0.00 0.00 0.00 0.00 0.00 0.00 0.00 0.00 0.00 0.00 0.00 0.00 0.00 0.00 0.00 0.00 0.00 0.00 0.00 0.00 0.00 0.00
0.00 0.00 0.00 0.00 0.00 0.00 0.00 0.00 0.00 0.00 0.00 0.00 0.00 0.00 0.00 0.00 0.00 0.00 0.00 0.00 0.00 0.00 0.00 0.00 0.00 0.00 0.00 0.00 0.00 0.00 0.00 0.00 0.00 0.00 0.00 0.00 0.00 0.00 0.00 0.00 0.00 0.00 0.00 0.00
0.00 0.00 0.00 0.00 0.00 0.00 0.00 0.00 0.00 0.00 0.00 0.00 0.00 0.00 0.00 0.00 0.00 0.00 0.00 0.00 0.00 0.00 0.00 0.00 0.00 0.00 0.00 0.00 0.00 0.00 0.00 0.00 0.00 0.00 0.00 0.00 0.00 0.00 0.00 0.00 0.00 0.00 0.00 0.00
0.00 0.00 0.00 0.00 0.00 0.00 0.00 0.00 0.00 0.00 0.00 0.00 0.00 0.00 0.00 0.00 0.00 0.00 0.00 0.00 0.00 0.00 0.00 0.00 0.00 0.00 0.00 0.00 0.00 0.00 0.00 0.00 0.00 0.00 0.00 0.00 0.00 0.00 0.00 0.00 0.00 0.00 0.00 0.00
0.00 0.00 0.00 0.00 0.00 0.00 0.00 0.00 0.00 0.00 0.00 0.00 0.00 0.00 0.00 0.00 0.00 0.00 0.00 0.00 0.00 0.00 0.00 0.00 0.00 0.00 0.00 0.00 0.00 0.00 0.00 0.00 0.00 0.00 0.00 0.00 0.00 0.00 0.00 0.01 0.01 0.01 0.01 0.00
0.00 0.00 0.00 0.00 0.00 0.00 0.00 0.00 0.00 0.00 0.00 0.00 0.00 0.00 0.00 0.00 0.00 0.00 0.00 0.00 0.00 0.00 0.00 0.00 0.00 0.00 0.00 0.00 0.00 0.00 0.00 0.00 0.00 0.00 0.00 0.00 0.00 0.01 0.01 0.01 0.01 0.01 0.00 0.00
0.00 0.00 0.00 0.00 0.00 0.00 0.00 0.00 0.00 0.00 0.00 0.00 0.00 0.00 0.00 0.00 0.00 0.00 0.00 0.00 0.00 0.00 0.00 0.00 0.00 0.00 0.00 0.00 0.00 0.00 0.00 0.00 0.00 0.00 0.00 0.01 0.01 0.01 0.01 0.01 0.01 0.01 0.01 0.00
0.00 0.00 0.00 0.00 0.00 0.00 0.00 0.00 0.00 0.00 0.00 0.00 0.00 0.00 0.00 0.00 0.00 0.00 0.00 0.00 0.00 0.00 0.00 0.00 0.00 0.00 0.00 0.00 0.00 0.01 0.01 0.01 0.01 0.01 0.01 0.01 0.01 0.01 0.01 0.01 0.01 0.01 0.01 0.01
0.00 0.00 0.00 0.00 0.00 0.00 0.00 0.00 0.00 0.00 0.00 0.00 0.00 0.00 0.00 0.00 0.00 0.00 0.00 0.00 0.00 0.00 0.00 0.00 0.00 0.00 0.00 0.00 0.01 0.01 0.01 0.01 0.01 0.01 0.01 0.01 0.01 0.01 0.01 0.01 0.01 0.01 0.01 0.01
0.00 0.00 0.00 0.00 0.00 0.00 0.00 0.00 0.00 0.00 0.00 0.00 0.00 0.00 0.00 0.00 0.00 0.00 0.00 0.00 0.00 0.00 0.00 0.00 0.00 0.00 0.00 0.01 0.01 0.01 0.00 0.00 0.00 0.00 0.00 0.00 0.01 0.01 0.01 0.01 0.01 0.01 0.01 0.01
0.00 0.00 0.00 0.00 0.00 0.00 0.00 0.00 0.00 0.00 0.00 0.00 0.00 0.00 0.00 0.00 0.00 0.00 0.00 0.00 0.00 0.00 0.00 0.00 0.00 0.00 0.00 0.01 0.00 0.00 0.00 0.00 0.00 0.00 0.00 0.00 0.01 0.01 0.01 0.01 0.01 0.01 0.01 0.01
0.00 0.00 0.00 0.00 0.00 0.00 0.00 0.00 0.00 0.00 0.00 0.00 0.00 0.00 0.00 0.00 0.00 0.00 0.00 0.00 0.00 0.00 0.00 0.00 0.00 0.00 0.00 0.00 0.00 0.00 0.00 0.00 0.00 0.00 0.01 0.01 0.01 0.01 0.01 0.01 0.01 0.01 0.01 0.01
0.00 0.00 0.00 0.00 0.00 0.00 0.00 0.00 0.00 0.00 0.00 0.00 0.00 0.00 0.00 0.00 0.00 0.00 0.00 0.00 0.00 0.00 0.00 0.00 0.00 0.00 0.00 0.00 0.00 0.00 0.00 0.00 0.01 0.01 0.01 0.01 0.01 0.01 0.01 0.01 0.01 0.01 0.01 0.01
0.00 0.00 0.00 0.00 0.00 0.00 0.00 0.00 0.00 0.00 0.00 0.00 0.00 0.00 0.00 0.00 0.00 0.00 0.00 0.00 0.00 0.00 0.00 0.00 0.00 0.00 0.00 0.00 0.00 0.00 0.00 0.00 0.01 0.01 0.01 0.01 0.01 0.01 0.01 0.01 0.01 0.01 0.01 0.01
0.01 0.01 0.01 0.00 0.00 0.00 0.00 0.00 0.00 0.00 0.00 0.00 0.00 0.00 0.00 0.00 0.00 0.00 0.00 0.00 0.00 0.00 0.00 0.00 0.00 0.00 0.00 0.00 0.00 0.00 0.00 0.00 0.01 0.01 0.01 0.01 0.01 0.01 0.01 0.01 0.01 0.01 0.01 0.01
MSLP
1016.40 1016.88 1017.30 1017.64 1017.86 1017.94 1017.83 1017.52 1017.03 1016.36 1015.57 1014.72 1013.90 1013.19 1012.65 1012.35 1012.29 1012.48 1012.89 1013.48 1014.19 1014.96 1015.76 1016.55 1017.31 1018.05 1018.75 1019.42 1020.06 1020.65 1021.18 1021.64 1022.02 1022.30 1022.48 1022.56 1022.58 1022.54 1022.46 1022.36 1022.25 1022.12 1021.98 1021.80
1016.14 1016.52 1016.79 1016.94 1016.97 1016.86 1016.60 1016.20 1015.67 1015.03 1014.32 1013.60 1012.92 1012.34 1011.92 1011.69 1011.67 1011.86 1012.25 1012.80 1013.48 1014.24 1015.06 1015.89 1016.71 1017.52 1018.30 1019.04 1019.73 1020.35 1020.89 1021.34 1021.68 1021.93 1022.07 1022.12 1022.10 1022.03 1021.92 1021.79 1021.64 1021.48 1021.29 1021.08
1016.01 1016.24 1016.33 1016.29 1016.11 1015.82 1015.42 1014.93 1014.37 1013.77 1013.14 1012.54 1012.00 1011.55 1011.24 1011.09 1011.12 1011.32 1011.69 1012.22 1012.88 1013.63 1014.45 1015.31 1016.19 1017.05 1017.88 1018.66 1019.38 1020.01 1020.54 1020.97 1021.28 1021.49 1021.59 1021.61 1021.56 1021.46 1021.33 1021.17 1021.00 1020.80 1020.58 1020.33
1015.96 1016.02 1015.92 1015.67 1015.30 1014.84 1014.31 1013.76 1013.19 1012.63 1012.10 1011.63 1011.23 1010.92 1010.72 1010.66 1010.74 1010.96 1011.34 1011.85 1012.49 1013.23 1014.04 1014.91 1015.80 1016.69 1017.55 1018.34 1019.05 1019.67 1020.17 1020.56 1020.83 1020.99 1021.06 1021.05 1020.98 1020.86 1020.71 1020.54 1020.34 1020.12 1019.86 1019.58
1015.89 1015.77 1015.47 1015.03 1014.49 1013.89 1013.28 1012.69 1012.14 1011.66 1011.24 1010.91 1010.66 1010.50 1010.43 1010.46 1010.61 1010.87 1011.25 1011.75 1012.37 1013.08 1013.88 1014.74 1015.62 1016.49 1017.33 1018.10 1018.78 1019.35 1019.81 1020.14 1020.36 1020.48 1020.51 1020.47 1020.38 1020.26 1020.10 1019.91 1019.69 1019.45 1019.16 1018.85
1015.67 1015.37 1014.90 1014.30 1013.63 1012.94 1012.29 1011.71 1011.23 1010.85 1010.57 1010.39 1010.31 1010.30 1010.37 1010.51 1010.73 1011.04 1011.43 1011.93 1012.52 1013.21 1013.97 1014.79 1015.63 1016.45 1017.24 1017.96 1018.58 1019.08 1019.47 1019.74 1019.90 1019.97 1019.96 1019.90 1019.80 1019.66 1019.49 1019.29 1019.06 1018.79 1018.48 1018.12
1015.18 1014.73 1014.12 1013.42 1012.68 1011.97 1011.33 1010.81 1010.43 1010.18 1010.06 1010.06 1010.15 1010.30 1010.51 1010.76 1011.06 1011.42 1011.84 1012.33 1012.91 1013.56 1014.27 1015.02 1015.79 1016.55 1017.26 1017.89 1018.43 1018.85 1019.16 1019.35 1019.45 1019.47 1019.43 1019.34 1019.22 1019.06 1018.88 1018.67 1018.41 1018.12 1017.77 1017.37
1014.36 1013.81 1013.13 1012.38 1011.63 1010.95 1010.39 1009.98 1009.73 1009.64 1009.69 1009.87 1010.12 1010.43 1010.78 1011.14 1011.52 1011.93 1012.38 1012.87 1013.42 1014.02 1014.67 1015.36 1016.05 1016.72 1017.33 1017.87 1018.31 1018.64 1018.86 1018.99 1019.02 1018.99 1018.91 1018.78 1018.64 1018.46 1018.25 1018.01 1017.73 1017.40 1017.01 1016.57
1013.24 1012.64 1011.94 1011.22 1010.52 1009.93 1009.49 1009.22 1009.12 1009.20 1009.43 1009.76 1010.17 1010.62 1011.09 1011.55 1012.00 1012.46 1012.92 1013.41 1013.93 1014.49 1015.08 1015.69 1016.30 1016.88 1017.40 1017.84 1018.18 1018.43 1018.57 1018.62 1018.60 1018.51 1018.38 1018.22 1018.04 1017.83 1017.59 1017.31 1016.98 1016.60 1016.17 1015.69
1011.92 1011.32 1010.66 1010.01 1009.43 1008.97 1008.68 1008.56 1008.63 1008.87 1009.24 1009.71 1010.25 1010.81 1011.36 1011.90 1012.41 1012.90 1013.38 1013.86 1014.36 1014.88 1015.41 1015.95 1016.48 1016.97 1017.40 1017.75 1018.01 1018.18 1018.25 1018.23 1018.15 1018.02 1017.84 1017.64 1017.41 1017.15 1016.86 1016.53 1016.16 1015.73 1015.25 1014.72
1010.52 1009.98 1009.42 1008.89 1008.45 1008.15 1008.01 1008.05 1008.27 1008.63 1009.12 1009.70 1010.32 1010.95 1011.56 1012.14 1012.68 1013.19 1013.68 1014.16 1014.63 1015.12 1015.60 1016.08 1016.53 1016.95 1017.31 1017.58 1017.77 1017.87 1017.88 1017.81 1017.68 1017.50 1017.28 1017.02 1016.74 1016.43 1016.08 1015.69 1015.26 1014.78 1014.25 1013.69
1009.22 1008.77 1008.34 1007.96 1007.68 1007.55 1007.56 1007.74 1008.06 1008.52 1009.08 1009.71 1010.37 1011.03 1011.66 1012.26 1012.81 1013.33 1013.82 1014.28 1014.74 1015.20 1015.64 1016.07 1016.47 1016.82 1017.11 1017.32 1017.46 1017.50 1017.46 1017.35 1017.18 1016.95 1016.68 1016.38 1016.04 1015.67 1015.26 1014.81 1014.32 1013.79 1013.22 1012.63
1008.14 1007.82 1007.53 1007.31 1007.19 1007.20 1007.35 1007.62 1008.03 1008.54 1009.13 1009.77 1010.43 1011.08 1011.71 1012.30 1012.85 1013.36 1013.84 1014.30 1014.74 1015.16 1015.57 1015.95 1016.30 1016.60 1016.84 1017.00 1017.08 1017.08 1017.00 1016.85 1016.64 1016.37 1016.06 1015.71 1015.33 1014.90 1014.43 1013.93 1013.39 1012.81 1012.21 1011.60
1007.36 1007.17 1007.03 1006.96 1006.99 1007.13 1007.37 1007.72 1008.17 1008.70 1009.28 1009.90 1010.53 1011.15 1011.75 1012.32 1012.85 1013.35 1013.82 1014.26 1014.68 1015.08 1015.45 1015.79 1016.09 1016.33 1016.51 1016.62 1016.66 1016.62 1016.50 1016.32 1016.07 1015.78 1015.43 1015.04 1014.61 1014.14 1013.62 1013.07 1012.49 1011.87 1011.25 1010.62
1006.91 1006.84 1006.84 1006.92 1007.07 1007.30 1007.61 1008.01 1008.47 1008.98 1009.54 1010.12 1010.71 1011.29 1011.85 1012.39 1012.90 1013.38 1013.83 1014.26 1014.65 1015.01 1015.34 1015.63 1015.87 1016.05 1016.17 1016.22 1016.21 1016.12 1015.97 1015.75 1015.48 1015.15 1014.78 1014.36 1013.90 1013.39 1012.84 1012.26 1011.64 1011.01 1010.36 1009.73
1006.75 1006.81 1006.94 1007.12 1007.37 1007.67 1008.03 1008.44 1008.90 1009.39 1009.91 1010.44 1010.99 1011.52 1012.05 1012.56 1013.04 1013.50 1013.93 1014.32 1014.68 1015.00 1015.27 1015.49 1015.66 1015.77 1015.82 1015.80 1015.73 1015.59 1015.40 1015.15 1014.85 1014.50 1014.10 1013.67 1013.18 1012.66 1012.09 1011.49 1010.86 1010.21 1009.56 1008.92
1006.87 1007.03 1007.26 1007.53 1007.84 1008.20 1008.59 1009.00 1009.44 1009.91 1010.39 1010.88 1011.38 1011.88 1012.37 1012.84 1013.30 1013.73 1014.12 1014.47 1014.78 1015.03 1015.23 1015.37 1015.46 1015.48 1015.45 1015.36 1015.21 1015.02 1014.78 1014.49 1014.17 1013.80 1013.39 1012.95 1012.46 1011.92 1011.35 1010.75 1010.12 1009.47 1008.81 1008.17
1007.20 1007.45 1007.75 1008.09 1008.45 1008.83 1009.23 1009.64 1010.07 1010.50 1010.95 1011.40 1011.87 1012.33 1012.79 1013.23 1013.65 1014.03 1014.38 1014.67 1014.91 1015.08 1015.20 1015.24 1015.23 1015.16 1015.03 1014.86 1014.64 1014.39 1014.10 1013.78 1013.43 1013.05 1012.63 1012.18 1011.69 1011.17 1010.60 1010.00 1009.38 1008.73 1008.08 1007.45
1007.71 1008.03 1008.39 1008.76 1009.15 1009.55 1009.95 1010.35 1010.75 1011.16 1011.58 1012.00 1012.42 1012.84 1013.26 1013.66 1014.02 1014.35 1014.63 1014.85 1015.00 1015.09 1015.10 1015.05 1014.94 1014.77 1014.55 1014.30 1014.01 1013.70 1013.36 1013.01 1012.64 1012.24 1011.82 1011.37 1010.89 1010.36 1009.81 1009.22 1008.61 1007.97 1007.34 1006.70
1008.38 1008.74 1009.13 1009.52 1009.92 1010.32 1010.71 1011.09 1011.47 1011.85 1012.23 1012.61 1012.99 1013.36 1013.72 1014.06 1014.36 1014.62 1014.81 1014.94 1015.00 1014.99 1014.90 1014.75 1014.54 1014.28 1013.99 1013.66 1013.31 1012.95 1012.58 1012.20 1011.81 1011.40 1010.97 1010.52 1010.04 1009.52 1008.97 1008.39 1007.79 1007.17 1006.54 1005.92
1009.15 1009.54 1009.94 1010.33 1010.73 1011.11 1011.48 1011.84 1012.18 1012.52 1012.86 1013.19 1013.52 1013.83 1014.12 1014.38 1014.60 1014.76 1014.86 1014.90 1014.86 1014.75 1014.57 1014.33 1014.04 1013.71 1013.35 1012.97 1012.57 1012.18 1011.78 1011.37 1010.96 1010.54 1010.10 1009.64 1009.15 1008.64 1008.09 1007.52 1006.92 1006.31 1005.70 1005.08
1009.98 1010.38 1010.77 1011.16 1011.54 1011.89 1012.23 1012.55 1012.86 1013.15 1013.43 1013.70 1013.96 1014.19 1014.39 1014.56 1014.68 1014.75 1014.75 1014.68 1014.55 1014.35 1014.09 1013.78 1013.43 1013.05 1012.65 1012.24 1011.82 1011.40 1010.99 1010.56 1010.13 1009.70 1009.24 1008.76 1008.26 1007.74 1007.19 1006.61 1006.02 1005.41 1004.80 1004.20
1010.81 1011.20 1011.59 1011.95 1012.30 1012.62 1012.92 1013.20 1013.45 1013.69 1013.90 1014.10 1014.27 1014.41 1014.52 1014.58 1014.60 1014.56 1014.47 1014.31 1014.10 1013.83 1013.51 1013.15 1012.77 1012.36 1011.94 1011.52 1011.09 1010.66 1010.23 1009.79 1009.34 1008.88 1008.41 1007.91 1007.39 1006.84 1006.27 1005.69 1005.09 1004.48 1003.88 1003.28
1011.59 1011.96 1012.32 1012.66 1012.97 1013.25 1013.51 1013.73 1013.93 1014.10 1014.24 1014.35 1014.43 1014.48 1014.49 1014.45 1014.37 1014.24 1014.06 1013.82 1013.54 1013.22 1012.86 1012.48 1012.08 1011.66 1011.24 1010.81 1010.38 1009.95 1009.51 1009.06 1008.60 1008.11 1007.60 1007.07 1006.52 1005.95 1005.35 1004.75 1004.14 1003.52 1002.92 1002.32
1012.26 1012.61 1012.94 1013.24 1013.51 1013.75 1013.96 1014.12 1014.26 1014.36 1014.43 1014.46 1014.46 1014.42 1014.33 1014.20 1014.03 1013.82 1013.56 1013.27 1012.94 1012.58 1012.20 1011.80 1011.40 1010.98 1010.56 1010.14 1009.71 1009.27 1008.82 1008.36 1007.86 1007.35 1006.81 1006.24 1005.65 1005.04 1004.42 1003.79 1003.16 1002.54 1001.92 1001.31
1012.80 1013.13 1013.42 1013.69 1013.92 1014.11 1014.26 1014.38 1014.45 1014.49 1014.49 1014.44 1014.36 1014.24 1014.07 1013.87 1013.63 1013.35 1013.03 1012.69 1012.33 1011.95 1011.55 1011.15 1010.74 1010.32 1009.91 1009.48 1009.05 1008.60 1008.13 1007.63 1007.11 1006.56 1005.98 1005.37 1004.75 1004.10 1003.45 1002.79 1002.14 1001.49 1000.86 1000.24
1013.24 1013.53 1013.79 1014.02 1014.20 1014.35 1014.45 1014.51 1014.52 1014.50 1014.43 1014.32 1014.17 1013.98 1013.76 1013.49 1013.19 1012.87 1012.51 1012.13 1011.74 1011.34 1010.93 1010.51 1010.09 1009.67 1009.24 1008.80 1008.34 1007.87 1007.37 1006.84 1006.28 1005.69 1005.07 1004.42 1003.76 1003.08 1002.39 1001.70 1001.02 1000.35 999.69 999.05
Thickness
5591 5594 5590 5591 5591 5584 5582 5585 5584 5594 5597 5616 5621 5619 5622 5623 5623 5619 5617 5614 5611 5607 5601 5595 5590 5584 5578 5572 5565 5559 5552 5545 5539 5532 5525 5519 5513 5506 5501 5494 5489 5483 5478 5472
5585 5587 5584 5585 5588 5585 5585 5587 5586 5590 5599 5618 5617 5614 5614 5616 5615 5614 5614 5613 5609 5604 5598 5592 5586 5580 5573 5566 5558 5551 5544 5537 5530 5523 5516 5510 5504 5497 5491 5485 5479 5474 5468 5462
5571 5579 5578 5575 5589 5589 5587 5588 5589 5591 5607 5616 5611 5610 5612 5614 5612 5612 5612 5609 5605 5600 5596 5590 5583 5576 5568 5560 5551 5543 5535 5528 5521 5514 5507 5501 5494 5488 5481 5476 5470 5464 5458 5452
5560 5565 5559 5590 5600 5599 5594 5596 5594 5598 5606 5609 5609 5610 5609 5608 5607 5607 5606 5603 5598 5593 5587 5581 5574 5566 5558 5549 5541 5533 5526 5518 5511 5504 5497 5491 5484 5477 5472 5466 5459 5454 5448 5443
5548 5554 5563 5582 5594 5593 5588 5592 5600 5598 5602 5603 5601 5601 5603 5603 5601 5601 5598 5594 5589 5583 5577 5570 5563 5556 5547 5538 5530 5523 5516 5508 5501 5494 5487 5480 5473 5468 5462 5456 5450 5444 5438 5432
5543 5552 5557 5584 5599 5595 5589 5587 5603 5599 5598 5596 5591 5588 5597 5597 5592 5589 5586 5581 5576 5571 5565 5558 5551 5544 5536 5527 5519 5512 5506 5498 5491 5484 5476 5470 5464 5458 5452 5445 5440 5434 5428 5421
5544 5549 5560 5584 5591 5588 5577 5588 5601 5598 5595 5588 5584 5588 5587 5583 5579 5576 5572 5567 5563 5558 5551 5544 5538 5531 5523 5515 5508 5502 5494 5487 5479 5472 5466 5459 5453 5447 5440 5434 5428 5422 5417 5412
5539 5544 5561 5587 5579 5580 5588 5594 5595 5593 5590 5583 5580 5577 5574 5570 5566 5562 5557 5553 5548 5543 5535 5528 5524 5518 5511 5503 5496 5489 5482 5475 5468 5461 5454 5449 5441 5434 5427 5420 5414 5409 5403 5400
5564 5573 5584 5581 5584 5588 5587 5587 5588 5585 5583 5578 5572 5567 5563 5558 5553 5549 5544 5539 5534 5528 5521 5514 5509 5505 5498 5490 5483 5477 5469 5462 5456 5449 5442 5436 5428 5422 5415 5407 5400 5395 5389 5385
5558 5568 5576 5577 5577 5580 5580 5581 5582 5579 5575 5569 5566 5560 5553 5547 5540 5535 5530 5525 5520 5514 5508 5501 5495 5490 5484 5478 5471 5465 5457 5450 5444 5437 5431 5424 5417 5410 5402 5394 5386 5380 5374 5370
5557 5566 5569 5574 5573 5575 5573 5571 5571 5568 5565 5561 5557 5550 5544 5536 5530 5524 5518 5512 5507 5502 5496 5489 5483 5477 5471 5465 5459 5452 5445 5438 5432 5426 5419 5413 5406 5397 5390 5383 5372 5366 5360 5353
5564 5571 5569 5573 5576 5572 5567 5564 5561 5558 5554 5550 5546 5540 5533 5525 5518 5512 5505 5499 5494 5488 5483 5476 5470 5464 5458 5453 5446 5439 5433 5427 5420 5413 5406 5400 5393 5389 5382 5372 5366 5357 5349 5341
5568 5568 5565 5567 5566 5564 5560 5557 5553 5549 5545 5538 5533 5528 5521 5513 5506 5500 5493 5488 5482 5477 5470 5464 5458 5452 5446 5441 5434 5427 5420 5414 5407 5400 5394 5387 5380 5373 5370 5366 5356 5346 5337 5328
5556 5557 5557 5557 5554 5552 5549 5545 5539 5535 5530 5525 5519 5514 5508 5501 5494 5488 5483 5477 5471 5464 5458 5452 5446 5440 5434 5428 5422 5415 5408 5402 5395 5388 5380 5372 5365 5357 5351 5347 5344 5338 5328 5316
5546 5548 5548 5544 5539 5536 5532 5528 5524 5518 5514 5509 5505 5501 5495 5489 5482 5476 5470 5464 5458 5452 5445 5439 5434 5428 5422 5416 5409 5402 5395 5388 5382 5374 5367 5359 5351 5344 5336 5329 5324 5320 5315 5306
5534 5533 5532 5531 5528 5523 5520 5518 5513 5507 5502 5497 5492 5487 5482 5477 5469 5463 5457 5452 5446 5440 5434 5428 5422 5417 5410 5404 5397 5390 5382 5377 5370 5362 5354 5346 5338 5330 5323 5315 5309 5303 5297 5291
5525 5523 5521 5519 5516 5513 5510 5507 5503 5498 5491 5486 5480 5474 5468 5462 5456 5450 5444 5439 5433 5427 5421 5415 5410 5404 5398 5391 5384 5377 5370 5363 5357 5349 5340 5332 5324 5316 5308 5301 5295 5289 5284 5277
5525 5523 5519 5516 5510 5503 5498 5494 5489 5484 5479 5473 5467 5461 5456 5451 5444 5438 5431 5425 5419 5414 5409 5403 5397 5392 5385 5378 5371 5364 5356 5349 5342 5334 5326 5318 5311 5303 5295 5288 5282 5277 5273 5267
5510 5508 5505 5502 5498 5493 5487 5481 5476 5471 5465 5460 5454 5448 5442 5436 5430 5424 5418 5412 5407 5402 5397 5391 5386 5380 5372 5365 5359 5351 5343 5336 5328 5321 5313 5306 5299 5291 5283 5276 5271 5265 5260 5256
5494 5493 5490 5486 5482 5478 5473 5467 5462 5457 5451 5446 5440 5434 5428 5422 5417 5411 5405 5399 5394 5389 5385 5379 5374 5367 5360 5352 5346 5338 5329 5322 5314 5307 5300 5292 5286 5279 5273 5266 5261 5256 5251 5247
5480 5477 5474 5470 5465 5461 5458 5453 5449 5443 5437 5432 5427 5421 5415 5409 5403 5398 5392 5387 5384 5378 5373 5368 5361 5354 5347 5340 5334 5325 5316 5308 5300 5293 5286 5279 5273 5268 5262 5257 5251 5246 5242 5239
5466 5463 5459 5455 5450 5444 5440 5437 5433 5428 5422 5417 5412 5407 5401 5396 5390 5385 5380 5375 5372 5367 5362 5355 5347 5341 5335 5329 5321 5311 5303 5294 5287 5279 5273 5267 5261 5257 5252 5247 5243 5239 5235 5232
5451 5448 5444 5440 5435 5429 5424 5420 5417 5413 5408 5403 5398 5394 5389 5383 5378 5373 5370 5365 5359 5354 5349 5341 5335 5330 5324 5315 5306 5297 5289 5281 5274 5267 5261 5256 5250 5246 5242 5239 5235 5232 5229 5226
5435 5431 5426 5422 5419 5415 5409 5404 5401 5397 5392 5388 5384 5379 5375 5370 5365 5360 5356 5352 5347 5342 5335 5329 5323 5316 5309 5300 5291 5283 5275 5269 5262 5257 5251 5247 5242 5238 5234 5231 5228 5226 5223 5221
5417 5413 5410 5407 5403 5398 5394 5390 5386 5382 5378 5374 5370 5365 5361 5357 5352 5348 5343 5337 5333 5328 5321 5315 5308 5302 5293 5284 5277 5270 5264 5258 5252 5248 5243 5238 5234 5231 5228 5225 5223 5221 5219 5218
5402 5398 5394 5391 5388 5384 5380 5377 5373 5369 5365 5362 5358 5353 5348 5344 5339 5334 5329 5324 5319 5314 5307 5300 5293 5287 5279 5272 5265 5259 5254 5249 5244 5239 5234 5231 5229 5226 5224 5222 5219 5218 5217 5216
5385 5382 5379 5376 5372 5369 5366 5363 5359 5355 5351 5347 5344 5340 5336 5331 5326 5321 5316 5311 5305 5299 5293 5287 5280 5273 5267 5261 5255 5250 5245 5241 5237 5233 5230 5227 5225 5223 5221 5219 5218 5217 5216 5216